CAPE
22 30 20 25 43 38 33 37 24 15 13 8 21 5 9 1 0 58 90 77 0 0 0 0 0 6 0 0 1 0 0 0 0 0 0 0 8 17
19 20 28 28 30 43 41 40 32 33 16 19 15 12 11 0 0 1 8 33 1 1 0 0 0 0 0 0 0 0 0 0 0 0 0 0 0 4
15 25 32 31 39 49 39 32 42 46 32 19 22 19 19 17 7 8 10 13 141 1 0 0 0 1 0 0 0 0 0 0 0 0 0 0 0 0
31 32 19 20 29 33 45 39 42 38 42 29 45 19 15 18 19 17 1 7 239 5 1 0 0 0 1 1 0 0 0 0 0 0 0 0 0 0
32 23 25 20 35 43 41 41 44 40 47 40 31 28 10 12 24 27 12 14 251 238 1 0 0 0 0 1 0 0 0 0 0 0 0 0 0 0
44 34 31 30 39 47 35 38 41 54 41 37 36 31 18 13 28 34 14 3 8 243 0 0 0 0 0 0 0 0 0 0 0 0 0 0 0 0
44 24 43 28 18 36 49 45 42 48 39 37 34 34 37 15 11 30 31 0 35 222 0 0 0 0 0 0 0 0 0 0 0 0 0 0 0 0
53 42 32 29 33 15 13 12 23 36 32 50 37 34 29 20 19 18 12 17 30 129 75 0 0 0 0 0 0 0 0 0 0 0 0 0 0 0
59 58 49 49 35 38 19 15 11 9 14 33 36 38 40 17 17 14 14 16 20 16 151 0 0 0 0 0 0 0 0 0 0 0 0 0 0 0
49 49 61 42 32 18 33 28 26 22 27 25 18 34 24 10 11 16 13 6 1 12 27 0 1 0 0 0 1 0 1 0 0 0 0 0 0 0
32 41 46 33 7 20 30 28 22 19 10 12 19 20 30 20 11 8 6 0 0 1 0 0 1 1 1 1 0 1 0 0 0 0 0 0 0 0
13 28 11 21 11 17 34 40 28 20 13 8 10 21 19 12 2 8 12 1 0 0 7 0 0 0 1 0 1 0 0 1 1 0 0 0 0 0
38 46 33 10 16 17 17 41 31 23 13 14 17 17 22 22 17 5 2 2 1 1 2 1 1 0 0 0 0 1 0 0 0 0 1 0 1 0
29 52 29 22 15 18 27 16 12 15 20 19 21 14 20 13 13 4 2 0 0 0 0 1 0 0 1 1 0 0 0 1 0 0 1 0 0 1
35 21 12 24 15 29 13 10 21 30 20 16 10 14 19 16 10 3 2 0 0 0 0 0 0 0 0 0 0 0 0 0 0 0 0 0 0 0
22 24 39 33 23 31 35 31 38 34 26 18 17 16 12 7 10 14 5 3 2 0 0 0 0 0 0 0 1 1 0 0 0 0 0 0 0 0
25 55 47 45 40 39 38 30 32 30 26 22 14 17 9 8 5 6 3 2 5 5 2 0 0 0 0 0 0 0 0 0 0 0 0 0 0 0
30 37 49 49 46 46 45 39 34 26 22 20 15 13 15 11 8 20 29 24 11 4 4 4 1 1 0 0 0 0 0 0 0 0 0 0 0 1
26 43 43 50 48 46 48 42 38 31 28 30 27 17 16 13 15 16 27 18 10 12 13 17 13 4 0 0 0 0 0 1 0 1 0 0 0 0
23 39 46 49 47 41 44 42 42 39 33 33 31 20 14 17 13 19 18 19 18 16 11 10 15 8 3 3 3 2 0 0 1 1 1 1 1 0
27 32 47 46 50 46 46 43 40 42 41 32 31 20 21 14 12 17 21 11 17 17 12 12 16 0 4 5 5 3 1 0 0 1 1 2 2 2
39 29 45 51 48 49 45 46 45 40 36 31 26 24 22 20 14 17 19 26 29 27 18 18 13 12 8 5 3 14 4 3 0 0 0 0 0 2
34 31 39 48 50 46 44 45 42 40 37 26 26 24 19 14 20 23 18 22 22 24 26 18 16 13 6 4 3 7 3 4 3 3 2 0 0 0
CIN
0 0 0 0 0 0 0 0 0 0 0 0 0 0 0 0 0 0 -7 -32 0 0 0 0 0 -274 0 0 -94 0 0 0 0 0 0 0 -1 -1
0 0 0 0 0 0 0 0 0 0 0 0 0 0 0 0 0 0 0 -10 0 0 0 0 0 0 0 0 0 0 0 0 0 0 0 0 0 -3
0 0 0 0 0 0 0 0 0 0 0 0 0 0 0 0 0 0 0 0 -5 0 0 0 0 0 0 0 0 0 0 0 0 0 0 0 0 0
0 0 0 0 0 0 0 0 0 0 0 0 0 0 0 0 0 0 0 0 -3 -37 0 0 0 0 0 0 0 0 0 0 0 0 0 0 0 0
0 0 0 0 0 0 0 0 0 0 0 0 0 0 0 0 0 0 0 -1 -1 -11 0 0 0 0 0 0 0 0 0 0 0 0 0 0 0 0
0 0 0 0 0 0 0 0 0 0 0 0 0 0 0 0 0 0 0 -3 -3 -2 0 0 0 0 0 0 0 0 0 0 0 0 0 0 0 0
0 0 0 0 0 0 0 0 0 0 0 0 0 0 0 0 0 0 0 0 -8 -14 -10 0 0 0 0 0 0 0 0 0 0 0 0 0 0 0
0 0 0 0 0 0 0 0 0 0 0 0 0 0 0 0 0 0 0 -2 -1 -11 -4 -20 0 0 0 0 0 0 0 0 0 0 0 0 0 0
0 0 0 0 0 0 0 0 0 0 0 0 0 0 0 0 0 0 0 0 -1 -14 -3 0 0 0 0 0 0 0 0 0 0 0 0 0 0 0
0 0 0 0 0 0 0 0 0 0 0 0 0 0 0 0 0 0 0 0 0 -11 -46 0 0 0 0 0 0 0 0 0 0 0 0 0 0 0
0 0 0 0 0 0 0 0 0 0 0 0 0 0 0 0 0 0 0 0 0 0 0 0 0 0 0 0 0 0 0 0 0 0 0 0 0 0
0 0 0 0 0 0 0 0 0 0 0 0 0 0 0 0 0 0 0 0 0 0 0 0 0 0 0 0 0 0 0 0 0 0 0 0 0 0
0 0 0 0 0 0 0 0 0 0 0 0 0 0 0 0 0 0 0 0 0 0 0 0 0 0 0 0 0 0 0 0 0 0 0 0 0 0
0 0 0 0 0 0 0 0 0 0 0 0 0 0 0 0 0 0 0 0 0 0 0 0 0 0 0 0 0 0 0 0 0 0 0 0 0 0
0 0 0 0 0 0 0 0 0 0 0 0 0 0 0 0 0 0 0 0 0 0 0 0 0 0 0 0 0 0 0 0 0 0 0 0 0 0
0 0 0 0 0 0 0 0 0 0 0 0 0 0 0 0 0 0 0 0 0 0 0 0 0 0 0 0 0 0 0 0 0 0 0 0 0 0
0 0 0 0 0 0 0 0 0 0 0 0 0 0 0 0 0 0 0 0 0 0 0 -1 0 0 0 0 0 0 0 0 0 0 0 0 0 0
0 0 0 0 0 0 0 0 0 0 0 0 0 0 0 0 0 0 0 0 0 0 0 0 0 0 0 0 0 0 0 0 0 0 0 0 0 0
0 0 0 0 0 0 0 0 0 0 0 0 0 0 0 0 0 0 0 0 0 0 0 0 0 0 0 0 0 0 0 0 0 0 0 0 0 0
0 0 0 0 0 0 0 0 0 0 0 0 0 0 0 0 0 0 0 0 0 0 0 0 0 0 0 0 0 0 0 0 0 0 0 0 0 0
0 0 0 0 0 0 0 0 0 0 0 0 0 0 0 0 0 0 0 0 0 0 0 0 0 0 0 0 0 0 0 0 0 0 0 0 0 0
0 0 0 0 0 0 0 0 0 0 0 0 0 0 0 0 0 0 0 0 0 0 0 0 0 0 0 0 0 0 0 0 0 0 0 0 0 0
0 0 0 0 0 0 0 0 0 0 0 0 0 0 0 0 0 0 0 0 0 0 0 0 0 0 0 0 0 0 0 0 0 0 0 0 0 0
Wind_Speed
12 12 11 10 11 10 10 10 11 16 16 15 16 17 16 18 22 21 16 27 27 29 32 35 36 36 36 33 31 32 32 33 32 31 30 30 30 30
11 14 14 11 12 10 10 11 10 13 19 12 16 19 18 18 24 24 25 22 19 28 29 31 32 33 35 36 37 34 32 32 32 31 30 30 30 30
15 15 16 15 11 10 10 10 12 12 17 15 16 18 22 22 22 22 19 20 20 27 27 28 28 28 31 34 34 35 34 33 32 32 31 31 30 31
16 16 16 13 15 14 11 14 13 14 15 23 17 18 23 20 23 25 19 17 18 20 28 29 30 30 29 31 32 33 33 34 33 31 31 31 31 31
16 16 16 15 15 12 13 13 13 13 14 16 18 15 20 17 20 22 20 20 18 20 30 28 28 29 30 29 30 33 34 31 30 30 30 30 30 30
15 15 15 15 16 16 13 15 14 16 16 15 16 16 16 17 17 19 17 15 16 15 14 18 24 28 28 26 29 32 31 33 32 32 29 27 27 28
13 15 13 17 23 18 13 15 18 16 15 15 16 15 15 14 15 17 17 14 17 11 8 9 11 13 15 22 25 29 30 30 31 31 31 32 31 30
13 13 14 16 16 22 24 28 24 17 18 15 15 16 19 15 14 14 18 13 16 11 14 12 11 9 9 11 20 22 28 31 31 31 32 33 33 32
14 14 12 10 15 15 23 27 24 24 20 17 18 16 19 17 17 19 19 17 15 8 13 11 9 10 9 10 19 24 24 24 26 28 29 30 30 31
15 15 13 14 14 21 19 18 17 15 15 14 17 18 15 15 16 17 22 17 14 9 12 6 4 6 7 8 20 24 22 23 23 24 26 27 27 29
16 16 14 13 23 30 19 18 18 15 17 27 28 26 23 22 19 14 10 7 5 4 5 5 4 4 2 3 7 20 22 23 22 23 23 23 23 25
17 17 20 18 27 28 18 16 17 18 18 19 17 16 15 15 20 12 11 9 7 2 3 3 3 5 2 1 1 5 6 11 16 20 21 21 20 12
13 12 13 26 28 27 24 13 17 19 18 14 12 11 12 12 11 12 13 10 10 2 4 2 2 2 3 4 2 1 3 4 5 7 12 14 15 15
15 12 15 28 26 26 19 25 26 15 11 11 11 11 13 13 13 14 15 12 9 5 7 7 5 3 1 3 4 2 4 2 3 3 3 7 11 15
13 22 29 24 24 17 23 24 18 11 12 12 13 11 12 14 16 13 13 11 6 7 8 4 6 4 3 4 3 4 5 1 1 3 4 3 4 4
18 16 15 15 17 16 14 14 11 11 12 13 14 12 12 12 10 10 11 11 5 7 4 12 9 6 2 4 3 4 2 5 2 3 5 3 2 3
17 11 11 11 12 12 12 13 12 12 11 12 13 13 11 11 12 11 10 9 8 10 10 8 7 6 5 4 5 3 3 1 4 4 3 3 2 3
12 11 11 11 12 13 13 13 13 15 13 13 11 11 12 12 12 11 11 10 9 9 8 8 9 6 4 6 10 2 1 1 3 3 2 3 3 1
10 11 11 11 12 12 12 13 13 13 15 13 13 12 12 13 13 10 10 9 9 9 10 8 8 7 4 3 2 10 2 3 2 3 3 3 3 2
11 11 11 11 12 12 12 12 12 12 12 13 13 12 12 12 12 12 12 12 12 9 9 8 8 8 6 3 3 2 8 4 3 3 2 2 4 7
11 11 11 11 11 12 12 12 13 12 13 13 13 12 12 13 13 12 12 15 13 9 9 8 7 6 4 3 2 1 3 9 6 2 2 3 2 3
10 11 11 11 11 12 12 12 12 13 13 12 13 13 13 12 12 13 12 12 11 9 8 7 7 6 3 3 4 1 3 2 7 11 10 6 1 3
11 11 10 11 10 11 12 12 13 13 13 14 14 13 14 14 13 11 11 11 11 10 10 8 7 5 4 4 4 3 4 3 3 3 3 8 6 5
Wind_Direction
307 310 308 301 297 292 291 289 288 297 284 297 294 295 295 295 292 295 259 246 209 205 205 207 204 193 191 196 203 205 205 205 206 208 207 209 210 215
315 312 304 302 301 295 291 289 284 284 288 294 289 294 296 292 290 286 289 258 219 212 206 206 205 202 198 200 192 200 202 205 205 206 207 209 212 213
313 309 306 305 301 302 298 293 289 289 289 290 287 294 287 288 288 283 277 277 223 211 208 206 203 202 201 201 198 195 197 202 203 204 205 207 209 214
313 311 309 310 306 304 302 302 299 297 293 294 294 296 287 290 286 282 272 273 238 207 206 202 203 204 202 202 196 198 196 198 202 202 203 205 207 211
315 311 311 309 305 305 308 305 306 299 297 294 296 287 287 291 292 282 267 266 244 214 198 203 205 207 207 203 200 198 194 195 197 199 200 202 204 207
310 314 312 314 312 312 315 312 308 307 302 293 291 289 287 299 289 274 271 265 254 231 192 198 202 209 208 205 208 195 196 197 195 197 196 197 200 204
311 319 315 313 314 323 319 315 314 305 302 298 295 294 295 302 302 304 272 261 259 211 181 187 196 204 211 215 214 205 202 201 197 198 203 203 201 202
320 322 319 321 322 321 321 314 307 306 300 297 299 295 295 299 305 294 300 258 263 214 207 204 185 193 197 207 209 213 215 203 198 201 207 206 206 207
328 322 323 327 329 331 319 315 310 308 302 295 296 295 298 301 305 301 286 278 250 240 199 196 177 196 195 196 194 198 196 200 198 201 206 209 208 207
329 322 327 331 338 332 323 317 315 314 309 307 296 290 294 302 295 292 284 280 284 227 186 173 180 186 168 190 183 193 192 196 199 205 205 206 206 207
327 326 329 337 340 331 322 321 317 319 320 311 306 304 306 310 305 306 313 323 302 237 349 116 184 144 154 169 181 191 190 192 198 205 210 208 207 206
326 322 331 338 335 328 324 324 324 327 325 319 319 323 321 305 318 318 317 319 315 170 312 128 120 137 155 302 119 173 183 189 198 202 204 206 201 206
324 323 329 330 330 328 329 326 326 329 324 323 322 315 313 319 335 330 325 330 297 323 275 113 106 75 106 136 126 68 129 131 155 179 185 186 184 191
323 328 322 321 331 328 330 335 336 330 325 324 327 334 335 337 337 339 330 322 289 322 12 270 104 77 41 117 132 84 38 75 95 120 130 151 174 188
329 323 315 328 334 332 340 341 339 342 336 336 339 341 336 330 335 334 316 320 306 2 35 343 76 88 20 52 116 132 130 73 72 113 106 143 144 142
333 315 330 337 339 339 340 342 341 349 343 338 336 338 336 336 340 341 334 335 328 11 310 31 33 54 69 59 55 58 52 147 129 103 95 82 87 108
322 328 341 343 342 343 343 343 341 345 347 341 335 340 343 343 336 339 337 346 351 354 9 3 12 76 77 79 66 42 32 68 103 88 92 107 75 70
333 342 343 344 342 343 343 343 342 343 343 338 339 343 340 341 339 343 348 348 353 353 3 357 357 22 41 71 37 62 73 62 75 70 69 98 101 72
347 343 342 343 341 342 342 342 340 339 337 341 341 345 341 339 339 345 339 345 350 357 3 359 5 16 31 63 91 30 11 69 69 68 48 63 105 92
348 343 341 341 340 340 341 340 338 337 338 341 343 341 339 337 339 345 344 348 352 357 3 6 21 17 12 29 341 34 27 70 69 90 104 75 74 104
344 341 340 337 339 338 338 336 336 339 339 341 341 341 339 339 341 340 342 347 344 352 354 354 348 323 289 246 217 184 51 37 44 60 137 133 140 139
339 337 338 337 340 339 338 336 336 339 339 344 340 338 339 337 335 336 340 338 342 341 338 331 329 336 333 327 349 41 112 92 65 66 54 54 160 157
337 335 336 335 339 341 337 334 336 336 340 340 337 337 338 333 331 333 331 334 333 332 339 336 328 311 309 295 305 329 113 134 123 129 68 24 30 40